Monterrey Gen Maria, Mexico

2:42 PM CDT on June 27, 2017 (GMT -0500)
Gen Mariano Escobedo International

Weather History for MMMY - March, 2013

Change the Weather History Date:

Tuesday, March 26, 2013

  Actual Average Record
Temperature  
Mean Temperature 52 °F -  
Max Temperature 59 °F 80 °F 104 °F (2011)
Min Temperature 46 °F 58 °F 46 °F (2013)
Degree Days  
Heating Degree Days 12    
Growing Degree Days 2 (Base 50)    
Moisture  
Dew Point 43 °F    
Average Humidity 73    
Maximum Humidity 93    
Minimum Humidity 55    
Precipitation  
Precipitation 0.00 in - - ()
Sea Level Pressure  
Sea Level Pressure 30.35 in    
Wind  
Wind Speed 6 mph ()    
Max Wind Speed 12 mph    
Max Gust Speed -    
Visibility 8.9 miles    
Events Rain    
Averages and records for this station are not official NWS values.
T = Trace of Precipitation, MM = Missing Value Source: Averaged Metar Reports

Daily Weather History Graph

Daily Weather History Graph

Search for Another Location

Airport or City:

Trip Planner

Search our weather history database for the weather conditions in past years. The results will help you decide how hot, cold, wet, or windy it might be!

Date:

Astronomy

Mar. 26, 2013 Rise Set
Actual Time 6:37 AM CST 6:54 PM CST
Civil Twilight 6:14 AM CST 7:17 PM CST
Nautical Twilight 5:47 AM CST 7:44 PM CST
Astronomical Twilight 5:20 AM CST 8:11 PM CST
Moon 6:31 PM CST (3/26) 5:53 AM CST (3/26)
Length of Visible Light 13h 02m
Length of Day
12h 16m
Waxing Gibbous, 99% of the Moon is Illuminated
Mar 26
Waxing Gibbous
Mar 27
Full
Apr 2
Last Quarter
Apr 10
New
Apr 18
First Quarter

Hourly Weather History & Observations

Time (CST) Temp. Windchill Dew Point Humidity Pressure Visibility Wind Dir Wind Speed Gust Speed Precip Events Conditions
12:42 AM 53.6 °F - 41.0 °F 62% 30.30 in 10.0 mi East 11.5 mph - N/A   Overcast
1:43 AM 50.0 °F - 44.6 °F 82% 30.30 in 4.0 mi ESE 9.2 mph - N/A Rain Light Rain
2:40 AM 50.0 °F - 46.4 °F 87% 30.34 in 4.0 mi ESE 5.8 mph - N/A   Overcast
3:50 AM 48.2 °F - 46.4 °F 93% 30.31 in 4.0 mi East 5.8 mph - N/A Rain Light Rain
4:44 AM 48.2 °F - 44.6 °F 87% 30.34 in 4.0 mi East 6.9 mph - N/A   Overcast
5:41 AM 46.4 °F 44.3 °F 44.6 °F 93% 30.41 in 3.0 mi NNE 4.6 mph - N/A   Light Drizzle
6:40 AM 46.4 °F 41.9 °F 44.6 °F 93% 30.39 in 1.5 mi East 9.2 mph - N/A   Light Drizzle
7:06 AM 46.4 °F 41.5 °F 44.6 °F 93% 30.41 in 4.0 mi East 10.4 mph - N/A   Overcast
7:45 AM 46.4 °F 41.1 °F 44.6 °F 93% 30.41 in 5.0 mi ESE 11.5 mph - N/A   Overcast
8:45 AM 48.2 °F - 44.6 °F 87% 30.49 in 6.0 mi ESE 10.4 mph - N/A   Overcast
9:47 AM 50.0 °F - 42.8 °F 76% 30.45 in 7.0 mi SSE 9.2 mph - N/A   Overcast
10:45 AM 51.8 °F - 37.4 °F 58% 30.44 in 8.0 mi SE 6.9 mph - N/A   Overcast
11:50 AM 51.8 °F - 41.0 °F 67% 30.44 in 8.0 mi SSE 10.4 mph - N/A   Overcast
12:40 PM 51.8 °F - 41.0 °F 67% 30.41 in 10.0 mi SSE 4.6 mph - N/A   Overcast
1:40 PM 53.6 °F - 41.0 °F 62% 30.37 in 12.0 mi SE 6.9 mph - N/A   Overcast
2:47 PM 55.4 °F - 41.0 °F 58% 30.40 in 12.0 mi ESE 4.6 mph - N/A   Overcast
3:48 PM 55.4 °F - 41.0 °F 58% 30.31 in 12.0 mi Calm Calm - N/A   Overcast
4:50 PM 55.4 °F - 41.0 °F 58% 30.29 in 12.0 mi Calm Calm - N/A   Overcast
5:50 PM 55.4 °F - 41.0 °F 58% 30.33 in 12.0 mi Calm Calm - N/A   Overcast
6:45 PM 55.4 °F - 42.8 °F 63% 30.28 in 15.0 mi Calm Calm - N/A   Overcast
7:41 PM 55.4 °F - 42.8 °F 63% 30.27 in 15.0 mi SE 4.6 mph - N/A   Overcast
8:44 PM 59.0 °F - 42.8 °F 55% 30.32 in 15.0 mi SE 4.6 mph - N/A   Overcast
9:42 PM 55.4 °F - 44.6 °F 67% 30.29 in 15.0 mi SE 6.9 mph - N/A   Overcast
10:40 PM 55.4 °F - 44.6 °F 67% 30.28 in 12.0 mi ESE 6.9 mph - N/A   Overcast
11:50 PM 55.4 °F - 46.4 °F 72% 30.29 in 12.0 mi ESE 6.9 mph - N/A   Overcast